Location: Clanezzo
(45.7500°N, 9.6000°E)
Time: 03:31:16
(UTC+00:00)

ESTCUBE 1 - Pass Details

Date: 30 June 2022
Orbit: 646 x 657 km, 97.9° (Epoch: 13 August)

Event Time Altitude Azimuth Distance (km) Brightness Sun altitude
Exits shadow 21:07:23 23° 145° (SE) 1,362 ? -14.3°
Maximum altitude 21:10:00 59° 73° (ENE) 750 ? -14.6°
Drops below altitude 10° 21:14:25 10° 354° (N) 2,060 ? -15.0°
Sets 21:16:40 0° 351° (N) 2,977 ? -15.2°
